www.pogodaiklimat.ru

АРХИВ ПОГОДЫ в Омахе

Время (UTC), дата Ветер
(напр.,м/с)
 
Видим.   Явления Облачность Т
(С)
Тd
(С)
f
(%)
Тe
(С)
Тes
(С)
Комфортность

P
(гПа)

Po
(гПа)
Тmin
(С)
Tmax
(С)
R
(мм)
SD
(см)
07:52 19.04 С  16 км    ясно  +6.7  +2.8  76  +2  +2    1017.0  981.3         
08:52 19.04 С  16 км    ясно  +6.1  +2.8  79  +1  +1    1017.6  981.9         
09:52 19.04 С  16 км    ясно  +6.1  +2.2  76  +1  +1    1018.5  982.6         
10:52 19.04 С  16 км    ясно  +4.4  +1.7  83  0  0    1018.7  982.6  +4.4  +7.8     
11:52 19.04 С  16 км    ясно  +6.7  +2.2  73  +3  +3    1019.6  983.6         
12:52 19.04 С  16 км    ясно  +8.3  +2.8  68  +5  +6    1020.1  984.2         
13:52 19.04 С  16 км    ясно  +10.0  +3.3  63  +8  +10    1019.8  983.9         
14:52 19.04 С  16 км    2/2 900 м
[верхняя] 
+12.2  +3.3  54  +10  +15    1019.7  983.9         
15:52 19.04 С  16 км    2/2 1350 м
[верхняя] 
+14.4  +0.6  39  +13  +19    1019.8  983.9         
16:52 19.04 С  14 км    5/2 1650 м
[верхняя] 
+16.1  +0.6  35  +15  +21    1018.9  983.2  +4.4  +16.1     
17:52 19.04 С  16 км    5/2 1950 м
[верхняя] 
+16.7  -1.1  30  +16  +24    1018.3  982.6         
18:52 19.04 С  16 км    2/0 2100 м
[средняя верхняя] 
+17.8  -1.7  26  +17  +22    1017.3  981.6         
19:48 19.04 С  16 км    2/2 150 м
[верхняя] 
+18.0  -3.0  24  +18  +24      980.6         
19:52 19.04 С  16 км    2/2 150 м
[верхняя] 
+18.3  -2.8  24  +18  +26    1016.2  980.6         
20:52 19.04 С  16 км    2/0 7500 м
[верхняя] 
+18.9  -2.2  24  +18  +22    1015.6  980.0         
21:52 19.04 С  16 км    2/0 7500 м
[верхняя] 
+18.9  -2.2  24  +19  +23    1015.2  979.6         
22:52 19.04 СВ  16 км    2/0 7500 м
[верхняя] 
+18.9  -2.2  24  +20  +23    1014.7  979.0  +16.1  +19.4     
23:52 19.04   16 км    ясно  +17.2  -1.7  28  +17  +19    1014.7  979.0         
00:52 20.04 Ю  16 км    ясно  +13.9  -0.6  37  +13  +13    1014.6  979.0         
01:52 20.04 ЮВ  16 км    ясно  +11.7  +1.7  50  +10  +10    1014.8  979.0         
02:52 20.04 ЮВ  16 км    ясно  +11.7  +0.6  46  +11  +11    1014.5  979.0         
03:52 20.04 Ю  16 км    ясно  +10.0  +1.7  56  +8  +8    1014.1  978.6         
04:52 20.04 ЮВ  16 км    ясно  +9.4  +1.1  56  +7  +7    1013.8  978.3  +8.9  +18.9     
05:52 20.04 ЮВ  16 км    ясно  +8.9  +1.7  61  +7  +7    1014.0  978.6         
06:52 20.04 Ю  16 км    ясно  +8.3  +2.2  65  +6  +6    1013.4  978.0         
07:52 20.04 ЮВ  16 км    ясно  +7.8  +2.2  68  +4  +4    1013.6  978.3         
08:52 20.04 ЮВ  16 км    ясно  +7.8  +2.8  71  +4  +4    1013.4  978.0         
09:52 20.04 ЮВ  16 км    ясно  +6.7  +2.2  73  +3  +3    1013.0  977.3         
10:52 20.04 ЮВ  16 км    2/0 7500 м
[верхняя] 
+7.2  +2.2  71  +3  +3    1012.7  977.3  +6.7  +9.4     
11:52 20.04 Ю  16 км    ясно  +10.0  +2.2  58  +7  +7    1012.9  977.3         
12:52 20.04 Ю  16 км    ясно  +13.3  +1.1  43  +11  +12    1012.3  977.0         
13:52 20.04 Ю  16 км    ясно  +16.7  +1.1  35  +16  +17    1011.5  976.4         
14:52 20.04 Ю  16 км    ясно  +19.4  +1.1  29  +19  +21    1011.0  975.7         
15:52 20.04 Ю  16 км    ясно  +22.2  +2.2  27  +22  +24  комфорт  1010.2  975.1         
16:52 20.04 Ю  7
{13} 
16 км    ясно  +24.4  +2.2  23  +23  +26  комфорт  1009.0  974.1  +7.2  +25.0     
17:52 20.04 Ю  7
{11} 
16 км    ясно  +26.1  +2.2  21  +25  +28  комфорт  1008.1  973.1         
18:52 20.04 Ю  6
{10} 
16 км    ясно  +27.8  +3.3  21  +26  +31  жарко  1007.3  972.4         
19:52 20.04 Ю  7
{11} 
16 км    ясно  +28.3  +3.3  20  +27  +30  жарко  1006.4  971.8         
20:52 20.04 Ю  7
{11} 
16 км    ясно  +28.3  +5.6  24  +27  +29  жарко  1005.4  970.8         
21:52 20.04 Ю  16 км    2/0 7500 м
[верхняя] 
+28.3  +5.0  23  +27  +28  жарко  1004.8  970.2         
22:52 20.04 Ю  16 км    2/0 7500 м
[верхняя] 
+27.2  +6.7  27  +27  +27  жарко  1004.4  969.5  +24.4  +28.9     
23:52 20.04 Ю  16 км    2/0 7500 м
[верхняя] 
+25.6  +6.1  29  +25  +25  комфорт  1004.4  969.5         
00:52 21.04 Ю  16 км    5/0 7500 м
[верхняя] 
+23.9  +6.7  33  +24  +24  комфорт  1004.6  969.8         
01:52 21.04 Ю  16 км    5/0 7500 м
[верхняя] 
+21.7  +6.1  36  +22  +22  комфорт  1005.1  970.5         
02:52 21.04 Ю  16 км    8/0 7500 м
[верхняя] 
+19.4  +6.7  44  +20  +20    1005.3  970.5         
03:52 21.04 Ю  16 км    5/0 7500 м
[верхняя] 
+20.6  +7.2  42  +21  +21  комфорт  1005.4  970.8         
04:52 21.04 Ю  16 км    5/0 7500 м
[верхняя] 
+18.9  +8.3  50  +19  +19    1005.7  971.1  +18.9  +27.2     
05:52 21.04 Ю  16 км    2/0 7500 м
[верхняя] 
+17.2  +8.9  58  +16  +16    1005.6  971.1         

 

Местоположение метеостанции Eppley Airfield: широта 41.3103 долгота -95.8992 высота над уровнем моря 299 м.

В архиве по умолчанию представлена погода в Омахе за последние 1-2 суток. Обновление информации о фактической погоде в базе происходит ежечасно! Архивные данные за месяц целиком и за предыдущие месяцы Вы можете получить, выбрав интересующий диапазон дат из раскрывающегося списка и нажав кнопку "Ввод!".

Внимание! Архив погоды МЕТАР в базе сайта в настоящее время начинается c 1 января 2011 г. Нет смысла пытаться выбрать более раннюю дату.

Внимание! Время в таблицах - всемирное. Для получения местного времени необходимо прибавить поправку, которая в Омахе равна -6 ч.

Ветер - указаны скорость ветра в м/с и направление, откуда дует ветер: С - северный, СВ - северо-восточный, В - восточный, ЮВ - юго-восточный, Ю - южный, ЮЗ - юго-западный, З - западный, СЗ - северо-западный.
Видимость - горизонтальная дальность видимости в метрах или километрах. При видимости от 1 до 10 км при отсутствии осадков обычно наблюдается дымка, при ухудшении видимости до 1 км и менее - туман. В сухую погоду видимость может ухудшаться дымом, пылью или мглою.
Атмосферные явления - указаны явления, наблюдавшиеся в указанный момент времени.
Облачность - указаны через наклонную черту верхняя и нижняя облачность в баллах и высота нижней границы облаков в метрах. Внимание: облачность, как и прочие метеорологические величины в США измеряются автоматическими метеостанциями. Указанные значения в баллах носят условный характер и показывают процент времени, в течение которого, в среднем, лазерный луч высотомера отражался от облаков обратно.
T - Температура воздуха - температура, измеренная на высоте 2 м над землей.
Td - Температура точки росы - температура, при понижении до которой содержащийся в воздухе водяной пар достигнет насыщения.
f - Относительная влажность воздуха - влажноcть воздуха, измеренная на высоте 2 м над землей.
Te - Эффективная температура - температура, которую ощущает одетый по сезону человек в тени. Характеристика душности погоды. При расчете учитывается влияние влажности воздуха и скорости ветра на теплоощущения человека.
Tes - Эффективная температура на солнце - температура, которую ощущает человек, с поправкой на солнечный нагрев. Характеристика знойности погоды. Зависит от высоты солнца над горизонтом, облачности и скорости ветра. Ночью, в пасмурную погоду, а также при ветре 12 м/с и более поправка равна нулю.
P - Атмосферное давление - приведенное к уровню моря атмосферное давление.
Po - Атмосферное давление - измеренное на уровне метеостанции атмосферное давление.
Tmin - Минимальная температура - минимум температуры воздуха на высоте 2 м над землей.
Tmax - Максимальная температура - максимум температуры воздуха на высоте 2 м над землей.
R - Количество осадков - Количество выпавших осадков за 3 или 6 часов, мм.
SD - Снежный покров - Высота снежного покрова, см.